This is the latest recevied weather packets stored in our database for station/object 4S6DRJ-13. If no packets are shown the sender has not sent any weather packets the latest 10 day(s).
| Time | Temp. | Humidity | Pressure | Rain* | Wind** | Luminosity | Snow |
|---|---|---|---|---|---|---|---|
| 1787647473 | 28.89° C | 80% | 1008.6 hPa | 0 mm | 2.68 m/s, 350° | 755 W/m² | - |
| 1787647412 | 28.89° C | 79% | 1008.7 hPa | 0 mm | 4.02 m/s, 254° | 1119 W/m² | - |
| 1787647351 | 28.89° C | 80% | 1008.9 hPa | 0 mm | 3.13 m/s, 340° | 1122 W/m² | - |
| 1787647290 | 28.89° C | 80% | 1008.7 hPa | 0 mm | 2.24 m/s, 280° | 1126 W/m² | - |
| 1787647229 | 28.89° C | 79% | 1008.9 hPa | 0 mm | 2.24 m/s, 325° | 406 W/m² | - |
| 1787647168 | 29.44° C | 79% | 1008.9 hPa | 0 mm | 2.68 m/s, 274° | 281 W/m² | - |
| 1787647107 | 29.44° C | 79% | 1008.9 hPa | 0 mm | 4.02 m/s, 315° | 219 W/m² | - |
| 1787647046 | 29.44° C | 79% | 1008.9 hPa | 0 mm | 2.68 m/s, 259° | 266 W/m² | - |
| 1787646985 | 29.44° C | 79% | 1008.9 hPa | 0 mm | 1.34 m/s, 216° | 358 W/m² | - |
| 1787646924 | 29.44° C | 79% | 1009 hPa | 0 mm | 1.79 m/s, 293° | 426 W/m² | - |
| 1787646863 | 29.44° C | 79% | 1008.9 hPa | 0 mm | 3.58 m/s, 219° | 476 W/m² | - |
| 1787646803 | 29.44° C | 78% | 1008.9 hPa | 0 mm | 4.92 m/s, 307° | 502 W/m² | - |
| 1787646741 | 29.44° C | 78% | 1008.9 hPa | 0 mm | 5.36 m/s, 323° | 650 W/m² | - |
| 1787646680 | 29.44° C | 78% | 1009 hPa | 0 mm | 2.24 m/s, 325° | 447 W/m² | - |
| 1787646619 | 29.44° C | 78% | 1009 hPa | 0 mm | 1.79 m/s, 329° | 386 W/m² | - |
| 1787646558 | 29.44° C | 77% | 1009.1 hPa | 0 mm | 4.47 m/s, 300° | 440 W/m² | - |
| 1787646498 | 29.44° C | 78% | 1008.9 hPa | 0 mm | 0.89 m/s, 262° | 753 W/m² | - |
| 1787646437 | 29.44° C | 78% | 1009 hPa | 0 mm | 1.79 m/s, 290° | 419 W/m² | - |
| 1787646375 | 29.44° C | 77% | 1009.1 hPa | 0 mm | 2.68 m/s, 229° | 543 W/m² | - |
| 1787646314 | 29.44° C | 77% | 1009.1 hPa | 0 mm | 2.68 m/s, 355° | 518 W/m² | - |
| 1787646253 | 29.44° C | 77% | 1009.1 hPa | 0 mm | 1.79 m/s, 43° | 504 W/m² | - |
| 1787646193 | 30° C | 76% | 1009.1 hPa | 0 mm | 2.68 m/s, 209° | 460 W/m² | - |
| 1787646131 | 30° C | 76% | 1009 hPa | 0 mm | 2.68 m/s, 355° | 489 W/m² | - |
| 1787646070 | 30° C | 77% | 1009.1 hPa | 0 mm | 0.89 m/s, 172° | 427 W/m² | - |
| 1787646009 | 30° C | 76% | 1008.9 hPa | 0 mm | 2.68 m/s, 98° | 427 W/m² | - |
* Rain latest hour (hover to see other rain measurements)
** Current wind speed in m/s (hover to see current wind gust speed)